Weather in Borilovo

Russia / Oryol Oblast     53°21′56″N   35°58′18″E
temp.,
°C
wind,
m/s
gust,
m/s
humid.,
%
clouds,
%
prec.,
mm/h
press.,
hPa
HPBL,
m
24 january, mon
mon2400:00−16ne35100100 0.0 103459
03:00−16nne36100100 0.1 103480
06:00−12nne4996100 0.0 1035140
09:00−10ne4109798 0.1 1034282
12:00−7ne499475 0.1 1034384
15:00−8nne489683 0.1 1033231
18:00−12nne499757 0.0 1033135
21:00−14ne389872 0.0 1033107
25 january, tue
tue2500:00−16nne2210076 0.0 103235
03:00−18nne22100100 0.1 103128
06:00−21nne22100100 0.0 10299
09:00−22ne11100100 0.0 10289
12:00−14se119663 0.0 102649
15:00−13ssw22955 0.0 102335
18:00−18sw229956 0.0 102214
21:00−17sw34100100 0.0 102045
26 january, wed
wed2600:00−16ssw35100100 0.0 101974
03:00−11ssw3796100 0.4 1017167
06:00−9sw3696100 0.8 1016226
09:00−10wsw259683 1.2 1017122
12:00−8nw239479 0.1 1017177
15:00−6nnw259692 0.3 1018314
18:00−8nnw479697 0.1 1019164
21:00−12nnw249882 0.2 102058
27 january, thu
thu2700:00−18wnw22100100 0.1 102111
03:00−18w22100100 0.1 10209
06:00−17sw22100100 0.1 101917
09:00−16ssw2399100 0.1 101948
12:00−11ssw3796100 0.0 1018203
15:00−9ssw499582 0.1 1016309
18:00−11s5119699 0.0 1015244
21:00−11s5129494 0.0 1013255
28 january, fri
fri2800:00−10s6139484 0.1 1012318
03:00−9s6139491 0.2 1010331
06:00−9sse61495100 0.1 1007330
09:00−7sse71595100 0.6 1005443
12:00−5s71495100 1.4 1003497
15:00−2ssw61296100 2.4 1002481
18:000ssw499799 0.4 1001489
21:00−1ssw51095100 0.6 1001412